M I D A S
Marine Information and Data Acquisition System
Tripno 341 of the Zeeleeuw from 2002-09-25 06:46:03 to 2002-09-25 12:56:14
Back to CruiseResearch ActivitiesStationsMapUnderway DataData graphs

EquipmentUnitsComments
TimeDGPSUTC
LatitudeDGPSDM.mWGS84
LongitudeDGPSDM.mWGS84
SpeedMeteo Stationm/sRelative wind speed
DirectionMeteo StationdegRelative wind direction
TemperatureMeteo Stationdeg CelciusAir temperature
PressureMeteo StationPaAtmospheric pressure
HumidityMeteo Station%Relative humidity
Missing or incorrect values are displayed as -999
Metereological data collected by the RV Zeeleeuw from 2002-09-25 06:46:03 to 2002-09-25 12:56:14
                                                                                    Next 1000 lines
Time Latitude Longitude Speed Direction Temperature Pressure Humidity
2002-09-25 06:46:09 51°13.668 2°55.947 5.8 3 14.8 101890 86
2002-09-25 06:46:14 51°13.668 2°55.947 5.8 20 14.8 101890 86
2002-09-25 06:46:19 51°13.668 2°55.947 6.2 20 14.8 101890 86
2002-09-25 06:46:23 51°13.668 2°55.947 6.4 36 14.8 101890 86
2002-09-25 06:46:29 51°13.668 2°55.947 7 25 14.8 101890 86
2002-09-25 06:46:34 51°13.668 2°55.947 5.9 5 14.8 101890 86
2002-09-25 06:46:38 51°13.668 2°55.947 5.3 30 14.9 101890 86
2002-09-25 06:46:42 51°13.668 2°55.947 4 18 14.9 101890 86
2002-09-25 06:46:49 51°13.668 2°55.947 7.8 22 14.9 101890 86
2002-09-25 06:46:55 51°13.668 2°55.947 6.4 23 14.9 101890 86
2002-09-25 06:46:59 51°13.668 2°55.947 6.5 13 14.9 101900 86
2002-09-25 06:47:04 51°13.668 2°55.947 3.3 1 14.9 101900 86
2002-09-25 06:47:09 51°13.668 2°55.947 6.5 19 14.8 101890 86
2002-09-25 06:47:14 51°13.668 2°55.947 5 9 14.8 101890 86
2002-09-25 06:47:19 51°13.668 2°55.947 6.7 19 14.9 101900 86
2002-09-25 06:47:23 51°13.668 2°55.947 5.8 25 14.9 101900 86
2002-09-25 06:47:29 51°13.668 2°55.947 4 20 14.9 101890 86
2002-09-25 06:47:34 51°13.668 2°55.947 4.7 40 14.9 101890 86
2002-09-25 06:47:39 51°13.668 2°55.947 7.1 28 14.9 101890 86
2002-09-25 06:47:43 51°13.669 2°55.947 6.1 15 14.9 101890 86
2002-09-25 06:47:49 51°13.669 2°55.947 7 2 14.9 101890 86
2002-09-25 06:47:54 51°13.669 2°55.947 6.9 19 14.9 101890 86
2002-09-25 06:47:59 51°13.669 2°55.947 5.4 20 14.9 101890 86
2002-09-25 06:48:04 51°13.669 2°55.947 6.6 19 14.9 101890 86
2002-09-25 06:48:09 51°13.669 2°55.947 4.6 32 14.9 101900 86
2002-09-25 06:48:14 51°13.669 2°55.947 7.5 28 14.9 101900 86
2002-09-25 06:48:19 51°13.669 2°55.947 4 6 14.9 101890 86
2002-09-25 06:48:23 51°13.669 2°55.947 5.1 10 14.9 101890 86
2002-09-25 06:48:29 51°13.669 2°55.947 4.2 20 14.9 101910 85
2002-09-25 06:48:34 51°13.669 2°55.947 7.1 22 14.9 101910 85
2002-09-25 06:48:39 51°13.669 2°55.947 5.9 10 14.9 101890 85
2002-09-25 06:48:44 51°13.669 2°55.947 4.7 347 14.9 101890 85
2002-09-25 06:48:49 51°13.669 2°55.947 6.6 14 14.9 101890 85
2002-09-25 06:48:54 51°13.669 2°55.947 4.4 15 14.9 101890 85
2002-09-25 06:48:59 51°13.669 2°55.947 5.8 16 14.9 101900 85
2002-09-25 06:49:04 51°13.669 2°55.947 7 9 14.9 101900 85
2002-09-25 06:49:09 51°13.669 2°55.947 8.6 25 14.9 101900 85
2002-09-25 06:49:14 51°13.669 2°55.947 5.7 16 14.9 101900 85
2002-09-25 06:49:19 51°13.669 2°55.947 5.1 12 14.9 101890 85
2002-09-25 06:49:24 51°13.669 2°55.947 4.4 24 14.9 101890 85
2002-09-25 06:49:29 51°13.669 2°55.947 4.8 9 14.9 101890 85
2002-09-25 06:49:35 51°13.669 2°55.947 4.7 18 14.9 101890 85
2002-09-25 06:49:39 51°13.669 2°55.947 8.4 25 14.9 101890 85
2002-09-25 06:49:45 51°13.669 2°55.947 7 22 14.9 101890 85
2002-09-25 06:49:49 51°13.669 2°55.947 5.9 18 14.9 101890 85
2002-09-25 06:49:53 51°13.669 2°55.947 6.8 126 14.9 101890 85
2002-09-25 06:49:59 51°13.669 2°55.947 7.5 24 15 101890 85
2002-09-25 06:50:04 51°13.669 2°55.947 6.6 354 15 101890 85
2002-09-25 06:50:09 51°13.669 2°55.947 6.7 8 15 101900 85
2002-09-25 06:50:14 51°13.669 2°55.947 6 23 15 101900 85
2002-09-25 06:50:19 51°13.668 2°55.947 5.6 10 15 101890 85
2002-09-25 06:50:25 51°13.668 2°55.947 7.7 9 15 101890 85
2002-09-25 06:50:28 51°13.669 2°55.947 7.4 14 15 101890 85
2002-09-25 06:50:35 51°13.668 2°55.947 7.4 24 15 101890 85
2002-09-25 06:50:39 51°13.668 2°55.947 5.9 13 15 101900 85
2002-09-25 06:50:43 51°13.669 2°55.947 5.3 8 15 101900 85
2002-09-25 06:50:49 51°13.668 2°55.947 4.3 353 15 101890 85
2002-09-25 06:50:54 51°13.668 2°55.947 3 11 15 101890 85
2002-09-25 06:50:58 51°13.668 2°55.947 4 2 15 101890 85
2002-09-25 06:51:04 51°13.668 2°55.947 3 344 15 101890 85
2002-09-25 06:51:09 51°13.668 2°55.947 4.9 11 15 101900 85
2002-09-25 06:51:14 51°13.668 2°55.947 6.4 17 15 101900 85
2002-09-25 06:51:19 51°13.668 2°55.947 6.9 2 15 101890 85
2002-09-25 06:51:24 51°13.668 2°55.947 5.7 9 15 101890 85
2002-09-25 06:51:29 51°13.668 2°55.947 5.7 17 15 101900 84
2002-09-25 06:51:34 51°13.668 2°55.947 3.9 27 15 101900 84
2002-09-25 06:51:39 51°13.668 2°55.947 6.8 15 15.1 101900 84
2002-09-25 06:51:43 51°13.668 2°55.947 5.9 36 15.1 101900 84
2002-09-25 06:51:50 51°13.668 2°55.947 7.7 24 15.1 101890 84
2002-09-25 06:51:54 51°13.668 2°55.947 3.4 31 15.1 101890 84
2002-09-25 06:51:59 51°13.668 2°55.947 6.1 22 15.1 101890 84
2002-09-25 06:52:05 51°13.668 2°55.947 5.3 15 15.1 101890 84
2002-09-25 06:52:09 51°13.668 2°55.947 5 11 15.1 101900 84
2002-09-25 06:52:15 51°13.668 2°55.947 5.4 36 15.1 101900 84
2002-09-25 06:52:19 51°13.668 2°55.947 2.7 23 15.1 101900 84
2002-09-25 06:52:24 51°13.668 2°55.947 3 29 15.1 101900 84
2002-09-25 06:52:29 51°13.668 2°55.947 3.3 17 15.1 101900 84
2002-09-25 06:52:34 51°13.668 2°55.947 5.4 27 15.1 101900 84
2002-09-25 06:52:39 51°13.668 2°55.947 8.8 26 15.1 101900 84
2002-09-25 06:52:42 51°13.668 2°55.947 9.9 35 15.1 101900 84
2002-09-25 06:52:49 51°13.668 2°55.947 3.1 8 15.1 101900 84
2002-09-25 06:52:54 51°13.668 2°55.947 6.6 16 15.1 101900 84
2002-09-25 06:52:58 51°13.668 2°55.948 6.1 10 15.1 101900 84
2002-09-25 06:53:03 51°13.668 2°55.947 5.2 350 15.1 101900 84
2002-09-25 06:53:09 51°13.668 2°55.947 6.7 25 15.1 101900 84
2002-09-25 06:53:14 51°13.669 2°55.946 7.5 14 15.1 101900 84
2002-09-25 06:53:19 51°13.669 2°55.946 5.8 22 15.2 101900 84
2002-09-25 06:53:23 51°13.669 2°55.946 6.3 358 15.2 101900 84
2002-09-25 06:53:30 51°13.669 2°55.946 6.7 44 15.2 101900 84
2002-09-25 06:53:34 51°13.669 2°55.946 5.4 16 15.2 101900 84
2002-09-25 06:53:39 51°13.669 2°55.946 2.6 309 15.2 101910 84
2002-09-25 06:53:44 51°13.669 2°55.946 3.6 6 15.2 101910 84
2002-09-25 06:53:50 51°13.669 2°55.947 3.8 23 15.2 101910 84
2002-09-25 06:53:55 51°13.668 2°55.947 8.6 1 15.2 101910 84
2002-09-25 06:53:59 51°13.668 2°55.947 8.8 352 15.2 101910 84
2002-09-25 06:54:05 51°13.668 2°55.947 7.3 18 15.2 101910 84
2002-09-25 06:54:10 51°13.668 2°55.947 7 19 15.2 101900 84
2002-09-25 06:54:15 51°13.668 2°55.947 7.3 3 15.2 101900 84
2002-09-25 06:54:19 51°13.668 2°55.947 4.7 21 15.2 101910 84
2002-09-25 06:54:24 51°13.668 2°55.947 6.2 19 15.2 101910 84
2002-09-25 06:54:29 51°13.668 2°55.947 2.9 23 15.2 101900 84
2002-09-25 06:54:34 51°13.667 2°55.947 7.5 24 15.2 101900 84
2002-09-25 06:54:39 51°13.667 2°55.947 8 3 15.2 101900 84
2002-09-25 06:54:45 51°13.667 2°55.947 3.3 360 15.2 101900 84
2002-09-25 06:54:49 51°13.667 2°55.947 5.1 19 15.2 101900 84
2002-09-25 06:54:54 51°13.667 2°55.947 6.4 20 15.2 101900 84
2002-09-25 06:54:59 51°13.667 2°55.948 4.7 15 15.2 101900 84
2002-09-25 06:55:03 51°13.667 2°55.948 5.9 357 15.2 101900 84
2002-09-25 06:55:09 51°13.667 2°55.948 6.6 27 15.2 101900 84
2002-09-25 06:55:15 51°13.667 2°55.948 5.6 3 15.2 101900 84
2002-09-25 06:55:19 51°13.667 2°55.948 6 9 15.2 101900 84
2002-09-25 06:55:23 51°13.667 2°55.948 5.7 6 15.2 101900 84
2002-09-25 06:55:29 51°13.667 2°55.948 7.3 26 15.2 101900 84
2002-09-25 06:55:34 51°13.668 2°55.948 5.7 17 15.2 101900 84
2002-09-25 06:55:39 51°13.668 2°55.948 7.6 18 15.2 101900 84
2002-09-25 06:55:45 51°13.668 2°55.948 3.5 11 15.2 101900 84
2002-09-25 06:55:50 51°13.668 2°55.948 7.9 27 15.2 101900 84
2002-09-25 06:55:54 51°13.668 2°55.948 5.6 5 15.2 101900 84
2002-09-25 06:55:59 51°13.667 2°55.948 6.4 13 15.2 101900 84
2002-09-25 06:56:03 51°13.667 2°55.948 7.3 33 15.2 101900 84
2002-09-25 06:56:09 51°13.667 2°55.948 4.5 22 15.2 101900 84
2002-09-25 06:56:14 51°13.667 2°55.948 7.4 10 15.2 101900 84
2002-09-25 06:56:19 51°13.667 2°55.948 5.8 30 15.2 101900 84
2002-09-25 06:56:24 51°13.667 2°55.948 6.6 20 15.2 101900 84
2002-09-25 06:56:29 51°13.667 2°55.948 6.8 15 15.2 101900 84
2002-09-25 06:56:34 51°13.667 2°55.948 7.4 4 15.2 101900 84
2002-09-25 06:56:38 51°13.667 2°55.948 8.9 30 15.2 101900 83
2002-09-25 06:56:43 51°13.667 2°55.948 4.2 23 15.2 101900 83
2002-09-25 06:56:49 51°13.667 2°55.948 9.2 25 15.2 101900 83
2002-09-25 06:56:54 51°13.667 2°55.948 8 27 15.2 101900 83
2002-09-25 06:56:59 51°13.667 2°55.948 10.4 6 15.2 101900 83
2002-09-25 06:57:03 51°13.668 2°55.948 8.4 12 15.2 101900 83
2002-09-25 06:57:09 51°13.668 2°55.948 7.9 24 15.2 101900 83
2002-09-25 06:57:14 51°13.668 2°55.948 7 33 15.2 101900 83
2002-09-25 06:57:18 51°13.668 2°55.948 7.9 2 15.2 101890 83
2002-09-25 06:57:23 51°13.668 2°55.948 8.2 24 15.2 101890 83
2002-09-25 06:57:29 51°13.668 2°55.948 6.9 25 15.2 101900 83
2002-09-25 06:57:34 51°13.668 2°55.948 6.7 333 15.2 101900 83
2002-09-25 06:57:39 51°13.667 2°55.948 8.6 19 15.2 101900 83
2002-09-25 06:57:43 51°13.667 2°55.948 7.2 359 15.2 101900 83
2002-09-25 06:57:49 51°13.667 2°55.948 4 8 15.2 101900 83
2002-09-25 06:57:55 51°13.667 2°55.948 4.8 36 15.2 101900 83
2002-09-25 06:57:59 51°13.667 2°55.948 6.2 22 15.2 101900 83
2002-09-25 06:58:03 51°13.667 2°55.948 5.4 39 15.2 101900 83
2002-09-25 06:58:09 51°13.667 2°55.948 3.9 345 15.2 101900 83
2002-09-25 06:58:14 51°13.667 2°55.948 5.2 27 15.2 101900 83
2002-09-25 06:58:19 51°13.667 2°55.947 7.4 25 15.2 101900 83
2002-09-25 06:58:25 51°13.667 2°55.947 7.5 20 15.2 101900 83
2002-09-25 06:58:30 51°13.667 2°55.947 8.4 24 15.2 101900 83
2002-09-25 06:58:35 51°13.667 2°55.947 8.1 29 15.2 101900 83
2002-09-25 06:58:39 51°13.667 2°55.947 6.2 20 15.2 101900 83
2002-09-25 06:58:45 51°13.667 2°55.947 4.9 30 15.2 101900 83
2002-09-25 06:58:49 51°13.667 2°55.947 5.9 33 15.2 101900 83
2002-09-25 06:58:54 51°13.667 2°55.947 7.1 18 15.2 101900 83
2002-09-25 06:58:59 51°13.668 2°55.947 5.6 24 15.2 101900 83
2002-09-25 06:59:04 51°13.668 2°55.948 3.6 348 15.2 101900 83
2002-09-25 06:59:09 51°13.668 2°55.948 4.2 16 15.2 101900 83
2002-09-25 06:59:14 51°13.668 2°55.948 4.4 18 15.2 101900 83
2002-09-25 06:59:18 51°13.667 2°55.948 9.8 10 15.2 101900 83
2002-09-25 06:59:25 51°13.667 2°55.948 7.1 32 15.2 101900 83
2002-09-25 06:59:27 51°13.667 2°55.948 6.8 9 15.3 101900 83
2002-09-25 06:59:34 51°13.667 2°55.948 4.1 6 15.3 101900 83
2002-09-25 06:59:39 51°13.667 2°55.947 7.2 36 15.3 101900 83
2002-09-25 06:59:45 51°13.667 2°55.947 5.1 3 15.3 101900 83
2002-09-25 06:59:49 51°13.667 2°55.947 3.6 14 15.3 101900 83
2002-09-25 06:59:55 51°13.667 2°55.947 3.5 5 15.3 101900 83
2002-09-25 06:59:59 51°13.667 2°55.947 7.1 23 15.3 101910 83
2002-09-25 07:00:04 51°13.667 2°55.947 7.1 349 15.3 101910 83
2002-09-25 07:00:08 51°13.666 2°55.947 3.4 3 15.3 101900 83
2002-09-25 07:00:14 51°13.666 2°55.947 1.9 329 15.3 101900 83
2002-09-25 07:00:18 51°13.666 2°55.947 2.7 338 15.3 101910 83
2002-09-25 07:00:25 51°13.666 2°55.947 3.8 352 15.3 101910 83
2002-09-25 07:00:30 51°13.666 2°55.947 8 360 15.3 101910 83
2002-09-25 07:00:34 51°13.666 2°55.947 7.1 2 15.3 101910 83
2002-09-25 07:00:39 51°13.666 2°55.947 4.1 333 15.3 101900 83
2002-09-25 07:00:43 51°13.666 2°55.946 5.5 359 15.3 101900 83
2002-09-25 07:00:48 51°13.666 2°55.946 6.7 337 15.3 101900 83
2002-09-25 07:00:54 51°13.665 2°55.946 7.5 5 15.3 101900 83
2002-09-25 07:00:59 51°13.665 2°55.946 5.8 10 15.3 101910 83
2002-09-25 07:01:03 51°13.665 2°55.946 4.4 346 15.3 101910 83
2002-09-25 07:01:09 51°13.665 2°55.946 7.3 340 15.4 101910 83
2002-09-25 07:01:14 51°13.665 2°55.945 5.3 354 15.4 101910 83
2002-09-25 07:01:18 51°13.666 2°55.944 2.9 326 15.4 101920 83
2002-09-25 07:01:24 51°13.666 2°55.942 4.9 326 15.4 101920 83
2002-09-25 07:01:29 51°13.667 2°55.94 3.2 6 15.4 101910 83
2002-09-25 07:01:34 51°13.667 2°55.937 5 353 15.4 101910 83
2002-09-25 07:01:39 51°13.668 2°55.934 7.7 350 15.4 101900 83
2002-09-25 07:01:45 51°13.668 2°55.929 6.5 342 15.4 101900 83
2002-09-25 07:01:50 51°13.669 2°55.925 3.8 336 15.4 101910 82
2002-09-25 07:01:55 51°13.67 2°55.921 6.3 6 15.4 101910 82
2002-09-25 07:01:59 51°13.67 2°55.917 4 356 15.4 101910 82
2002-09-25 07:02:06 51°13.671 2°55.91 7.2 338 15.4 101910 82
2002-09-25 07:02:10 51°13.672 2°55.906 7.3 342 15.4 101930 82
2002-09-25 07:02:15 51°13.672 2°55.9 5.9 2 15.4 101930 82
2002-09-25 07:02:20 51°13.673 2°55.894 5.5 346 15.4 101900 82
2002-09-25 07:02:25 51°13.674 2°55.888 7.1 14 15.4 101900 82
2002-09-25 07:02:30 51°13.674 2°55.882 2.7 343 15.4 101910 82
2002-09-25 07:02:35 51°13.675 2°55.875 5.9 5 15.4 101910 82
2002-09-25 07:02:40 51°13.675 2°55.869 5 358 15.4 101910 82
2002-09-25 07:02:46 51°13.676 2°55.861 6 353 15.4 101910 82
2002-09-25 07:02:50 51°13.676 2°55.855 4.4 359 15.4 101920 82
2002-09-25 07:02:55 51°13.677 2°55.848 7 345 15.4 101920 82
2002-09-25 07:02:59 51°13.678 2°55.842 5.5 332 15.5 101920 82
2002-09-25 07:03:05 51°13.679 2°55.832 7.3 355 15.5 101920 82
2002-09-25 07:03:10 51°13.68 2°55.824 8.6 344 15.4 101920 82
2002-09-25 07:03:15 51°13.681 2°55.816 9.1 10 15.4 101920 82
2002-09-25 07:03:19 51°13.682 2°55.81 5.3 16 15.4 101920 82
2002-09-25 07:03:25 51°13.683 2°55.802 8   15.4 101920 82
2002-09-25 07:03:30 51°13.684 2°55.795 3.9 340 15.5 101920 82
2002-09-25 07:03:35 51°13.685 2°55.79 7.4 353 15.5 101920 82
2002-09-25 07:03:39 51°13.685 2°55.788 4.9 316 15.5 101920 81
2002-09-25 07:03:43 51°13.685 2°55.787 2.8 349 15.5 101920 81
2002-09-25 07:03:49 51°13.685 2°55.788 5.7 344 15.5 101930 81
2002-09-25 07:03:54 51°13.685 2°55.79 5.3 318 15.5 101930 81
2002-09-25 07:03:59 51°13.685 2°55.794 8.2 291 15.5 101930 81
2002-09-25 07:04:04 51°13.686 2°55.799 4.5 335 15.5 101930 81
2002-09-25 07:04:09 51°13.687 2°55.802 8.7 294 15.5 101920 81
2002-09-25 07:04:14 51°13.687 2°55.806 6.3 282 15.5 101920 81
2002-09-25 07:04:19 51°13.688 2°55.808 8.5 302 15.5 101900 81
2002-09-25 07:04:23 51°13.688 2°55.809 5.4 340 15.5 101900 81
2002-09-25 07:04:29 51°13.687 2°55.809 11.2 311 15.5 101910 81
2002-09-25 07:04:34 51°13.687 2°55.808 6.3 305 15.5 101910 81
2002-09-25 07:04:39 51°13.686 2°55.805 8.2 310 15.5 101900 81
2002-09-25 07:04:44 51°13.684 2°55.802 4.3 333 15.5 101900 81
2002-09-25 07:04:49 51°13.683 2°55.798 5.4 331 15.5 101910 81
2002-09-25 07:04:55 51°13.682 2°55.793 7.6 315 15.5 101910 81
2002-09-25 07:04:59 51°13.68 2°55.79 5.3 322 15.5 101920 81
2002-09-25 07:05:06 51°13.679 2°55.785 12.3 300 15.5 101920 81
2002-09-25 07:05:10 51°13.679 2°55.783 11.4 308 15.5 101920 80
2002-09-25 07:05:15 51°13.678 2°55.784 13.4 294 15.5 101920 80
2002-09-25 07:05:20 51°13.679 2°55.786 14.3 291 15.5 101920 80
2002-09-25 07:05:25 51°13.68 2°55.79 11.7 280 15.5 101920 80
2002-09-25 07:05:30 51°13.682 2°55.794 12.2 273 15.6 101910 80
2002-09-25 07:05:35 51°13.684 2°55.798 13.6 279 15.6 101910 80
2002-09-25 07:05:40 51°13.686 2°55.801 12 275 15.6 101900 80
2002-09-25 07:05:45 51°13.689 2°55.804 12.8 267 15.6 101900 80
2002-09-25 07:05:50 51°13.691 2°55.807 9.8 288 15.6 101890 80
2002-09-25 07:05:55 51°13.692 2°55.809 11.8 284 15.6 101890 80
2002-09-25 07:06:00 51°13.694 2°55.811 9.4 261 15.6 101880 80
2002-09-25 07:06:05 51°13.695 2°55.812 11.3 266 15.6 101880 80
2002-09-25 07:06:10 51°13.695 2°55.812 9.2 261 15.6 101900 80
2002-09-25 07:06:13 51°13.694 2°55.812 9.6 284 15.6 101900 80
2002-09-25 07:06:19 51°13.693 2°55.811 11.3 290 15.6 101880 80
2002-09-25 07:06:25 51°13.691 2°55.809 7.4 269 15.6 101880 80
2002-09-25 07:06:30 51°13.688 2°55.807 9.4 292 15.6 101900 80
2002-09-25 07:06:35 51°13.686 2°55.805 9.4 272 15.6 101900 80
2002-09-25 07:06:39 51°13.685 2°55.804 10.8 273 15.6 101900 80
2002-09-25 07:06:46 51°13.683 2°55.803 9 277 15.6 101900 80
2002-09-25 07:06:50 51°13.683 2°55.802 8.2 275 15.6 101900 80
2002-09-25 07:06:55 51°13.683 2°55.803 11.9 260 15.6 101900 80
2002-09-25 07:07:00 51°13.684 2°55.803 11.2 262 15.6 101900 80
2002-09-25 07:07:05 51°13.686 2°55.805 10.2 256 15.6 101900 80
2002-09-25 07:07:10 51°13.689 2°55.806 9.7 249 15.7 101900 80
2002-09-25 07:07:15 51°13.692 2°55.807 8.6 247 15.7 101900 80
2002-09-25 07:07:20 51°13.694 2°55.807 8.4 261 15.7 101900 80
2002-09-25 07:07:25 51°13.696 2°55.808 8.2 246 15.7 101900 80
2002-09-25 07:07:30 51°13.698 2°55.808 9 241 15.7 101890 80
2002-09-25 07:07:35 51°13.698 2°55.809 7.3 237 15.7 101890 80
2002-09-25 07:07:39 51°13.698 2°55.809 8.8 317 15.7 101890 80
2002-09-25 07:07:45 51°13.698 2°55.809 7.3 239 15.7 101890 80
2002-09-25 07:07:50 51°13.697 2°55.809 7.3 233 15.7 101890 80
2002-09-25 07:07:55 51°13.696 2°55.809 9.4 244 15.7 101890 80
2002-09-25 07:07:59 51°13.695 2°55.809 9.3 225 15.7 101890 80
2002-09-25 07:08:02 51°13.694 2°55.81 8.5 230 15.7 101890 80
2002-09-25 07:08:10 51°13.695 2°55.81 7.7 321 15.7 101900 80
2002-09-25 07:08:15 51°13.697 2°55.809 9.7 242 15.7 101900 80
2002-09-25 07:08:20 51°13.699 2°55.809 8.7 227 15.7 101910 80
2002-09-25 07:08:25 51°13.701 2°55.807 9.9 316 15.7 101910 80
2002-09-25 07:08:29 51°13.702 2°55.807 9.2 218 15.7 101890 80
2002-09-25 07:08:34 51°13.703 2°55.807 10.3 204 15.7 101890 80
2002-09-25 07:08:39 51°13.702 2°55.807 11.2 217 15.7 101880 80
2002-09-25 07:08:45 51°13.701 2°55.809 8 205 15.7 101880 80
2002-09-25 07:08:50 51°13.699 2°55.811 6.8 208 15.7 101900 80
2002-09-25 07:08:55 51°13.696 2°55.814 5.5 134 15.7 101900 80
2002-09-25 07:08:59 51°13.694 2°55.817 8.2 213 15.7 101900 80
2002-09-25 07:09:06 51°13.689 2°55.821 8.8 212 15.7 101900 80
2002-09-25 07:09:10 51°13.686 2°55.824 9.8 213 15.7 101900 79
2002-09-25 07:09:15 51°13.682 2°55.827 5.2 202 15.7 101900 79
2002-09-25 07:09:19 51°13.679 2°55.83 6.6 195 15.7 101900 79
2002-09-25 07:09:25 51°13.675 2°55.834 7.4 201 15.7 101900 79
2002-09-25 07:09:30 51°13.673 2°55.836 6.5 238 15.7 101900 79
2002-09-25 07:09:35 51°13.671 2°55.838 6.2 210 15.7 101900 79
2002-09-25 07:09:39 51°13.671 2°55.838 7.3 204 15.7 101900 79
2002-09-25 07:09:45 51°13.671 2°55.836 7.2 217 15.7 101900 79
2002-09-25 07:09:50 51°13.672 2°55.834 7.9 196 15.7 101910 79
2002-09-25 07:09:54 51°13.674 2°55.831 9.5 203 15.7 101910 79
2002-09-25 07:10:00 51°13.677 2°55.825 9.4 201 15.8 101900 79
2002-09-25 07:10:05 51°13.68 2°55.819 8.9 201 15.8 101900 79
2002-09-25 07:10:09 51°13.683 2°55.813 9.5 207 15.7 101900 79
2002-09-25 07:10:15 51°13.687 2°55.805 10.8 208 15.7 101900 79
2002-09-25 07:10:19 51°13.691 2°55.798 8.7 196 15.7 101890 79
2002-09-25 07:10:23 51°13.694 2°55.792 14.1 203 15.7 101890 79
2002-09-25 07:10:29 51°13.699 2°55.782 9.5 203 15.7 101890 79
2002-09-25 07:10:34 51°13.704 2°55.773 9 194 15.7 101890 79
2002-09-25 07:10:39 51°13.708 2°55.763 9.9 196 15.8 101890 79
2002-09-25 07:10:44 51°13.713 2°55.753 11.6 196 15.8 101890 79
2002-09-25 07:10:50 51°13.719 2°55.74 9.6 200 15.8 101890 78
2002-09-25 07:10:54 51°13.723 2°55.732 10 196 15.8 101890 78
2002-09-25 07:10:59 51°13.729 2°55.722 8.4 215 15.8 101890 78
2002-09-25 07:11:03 51°13.734 2°55.714 9.6 209 15.8 101890 78
2002-09-25 07:11:09 51°13.742 2°55.703 12.5 207 15.8 101890 79
2002-09-25 07:11:15 51°13.751 2°55.691 13.6 209 15.8 101890 79
2002-09-25 07:11:19 51°13.757 2°55.683 11.4 221 15.8 101900 79
2002-09-25 07:11:23 51°13.763 2°55.676 12 210 15.8 101900 79
2002-09-25 07:11:29 51°13.772 2°55.665 12.9 210 15.8 101890 79
2002-09-25 07:11:34 51°13.78 2°55.656 12.6 221 15.8 101890 79
2002-09-25 07:11:38 51°13.786 2°55.65 12.9 213 15.8 101880 79
2002-09-25 07:11:44 51°13.796 2°55.641 13.7 225 15.8 101880 79
2002-09-25 07:11:49 51°13.805 2°55.633 16.1 219 15.9 101870 79
2002-09-25 07:11:54 51°13.813 2°55.626 13.3 211 15.9 101870 79
2002-09-25 07:11:59 51°13.822 2°55.62 15.1 218 15.9 101880 79
2002-09-25 07:12:03 51°13.83 2°55.615 12.8 227 15.9 101880 79
2002-09-25 07:12:09 51°13.84 2°55.608 13.8 226 15.9 101880 79
2002-09-25 07:12:14 51°13.85 2°55.602 13.8 224 15.9 101880 79
2002-09-25 07:12:19 51°13.859 2°55.596 13.9 134 15.9 101880 79
2002-09-25 07:12:25 51°13.871 2°55.59 14 228 15.9 101880 79
2002-09-25 07:12:29 51°13.878 2°55.585 13 226 15.9 101880 79
2002-09-25 07:12:35 51°13.89 2°55.578 13.3 227 15.9 101880 79
2002-09-25 07:12:40 51°13.9 2°55.573 15 224 15.9 101880 79
2002-09-25 07:12:44 51°13.907 2°55.568 15.5 224 15.9 101880 79
2002-09-25 07:12:49 51°13.917 2°55.563 15.9 227 15.9 101880 79
2002-09-25 07:12:54 51°13.927 2°55.557 15.9 223 15.9 101880 79
2002-09-25 07:12:59 51°13.936 2°55.552 16.6 223 15.9 101890 79
2002-09-25 07:13:05 51°13.948 2°55.545 15.3 225 15.9 101890 79
2002-09-25 07:13:09 51°13.956 2°55.54 17.1 222 15.9 101880 79
2002-09-25 07:13:15 51°13.967 2°55.533 18.2 219 15.9 101880 79
2002-09-25 07:13:19 51°13.975 2°55.529 16.7 222 15.9 101890 79
2002-09-25 07:13:23 51°13.982 2°55.524 17 218 15.9 101890 79
2002-09-25 07:13:29 51°13.994 2°55.515 15.4 222 15.9 101870 78
2002-09-25 07:13:34 51°14.003 2°55.509 13.3 225 15.9 101870 78
2002-09-25 07:13:39 51°14.012 2°55.502 13.7 220 15.9 101860 78
2002-09-25 07:13:42 51°14.018 2°55.498 12.5 226 15.9 101860 78
2002-09-25 07:13:49 51°14.031 2°55.488 11.5 221 15.8 101880 78
2002-09-25 07:13:54 51°14.041 2°55.482 11.4 221 15.8 101880 78
2002-09-25 07:13:58 51°14.048 2°55.476 13.3 222 15.9 101870 78
2002-09-25 07:14:03 51°14.058 2°55.469 15.8 219 15.9 101870 78
2002-09-25 07:14:09 51°14.069 2°55.461 13.7 226 15.9 101880 78
2002-09-25 07:14:14 51°14.078 2°55.454 13.2 230 15.9 101880 78
2002-09-25 07:14:19 51°14.087 2°55.447 11.6 225 15.9 101890 79
2002-09-25 07:14:23 51°14.094 2°55.441 10 234 15.9 101890 79
2002-09-25 07:14:29 51°14.105 2°55.432 11.7 212 15.9 101880 79
2002-09-25 07:14:34 51°14.115 2°55.424 11.3 218 15.9 101880 79
2002-09-25 07:14:39 51°14.124 2°55.417 14.4 226 15.9 101890 79
2002-09-25 07:14:45 51°14.135 2°55.407 11.6 233 15.9 101890 79
2002-09-25 07:14:49 51°14.142 2°55.401 11.1 208 15.9 101900 79
2002-09-25 07:14:54 51°14.151 2°55.392 14.3 213 15.9 101900 79
2002-09-25 07:14:59 51°14.16 2°55.384 14.7 206 16 101890 79
2002-09-25 07:15:05 51°14.17 2°55.373 17.8 210 16 101890 79
2002-09-25 07:15:09 51°14.177 2°55.366 12.2 221 16 101890 79
2002-09-25 07:15:14 51°14.185 2°55.356 12.5 211 16 101890 79
2002-09-25 07:15:19 51°14.194 2°55.347 11.8 201 16 101900 79
2002-09-25 07:15:25 51°14.204 2°55.334 10.3 209 16 101900 79
2002-09-25 07:15:29 51°14.21 2°55.326 10.1 206 15.9 101890 79
2002-09-25 07:15:34 51°14.218 2°55.315 8.7 202 15.9 101890 79
2002-09-25 07:15:39 51°14.226 2°55.304 11 204 16 101900 79
2002-09-25 07:15:44 51°14.234 2°55.293 8.8 196 16 101900 79
2002-09-25 07:15:49 51°14.241 2°55.281 12.1 210 16 101900 79
2002-09-25 07:15:54 51°14.249 2°55.27 10.6 212 16 101900 79
2002-09-25 07:15:59 51°14.256 2°55.258 10.8 206 16 101900 79
2002-09-25 07:16:05 51°14.265 2°55.244 8.7 195 16 101900 79
2002-09-25 07:16:09 51°14.271 2°55.234 8.2 198 16 101900 79
2002-09-25 07:16:15 51°14.28 2°55.219 10 203 16 101900 79
2002-09-25 07:16:19 51°14.285 2°55.209 10.1 208 16 101900 79
2002-09-25 07:16:23 51°14.291 2°55.199 10.2 203 16 101900 79
2002-09-25 07:16:29 51°14.299 2°55.183 14.2 205 16 101910 79
2002-09-25 07:16:34 51°14.305 2°55.17 9.4 191 16 101910 79
2002-09-25 07:16:39 51°14.312 2°55.158 9.6 201 16 101900 79
2002-09-25 07:16:42 51°14.316 2°55.15 13.1 207 16 101900 79
2002-09-25 07:16:49 51°14.325 2°55.132 9.4 203 16 101890 78
2002-09-25 07:16:54 51°14.332 2°55.119 12.8 195 16 101890 78
2002-09-25 07:16:59 51°14.338 2°55.106 12.5 189 16 101900 78
2002-09-25 07:17:03 51°14.343 2°55.096 11.5 187 16 101900 78
2002-09-25 07:17:09 51°14.351 2°55.08 11.3 188 16 101900 78
2002-09-25 07:17:14 51°14.357 2°55.066 10.7 188 16 101900 78
2002-09-25 07:17:19 51°14.363 2°55.052 10.5 183 16 101880 78
2002-09-25 07:17:24 51°14.368 2°55.038 10.9 181 16 101880 78
2002-09-25 07:17:29 51°14.374 2°55.023 10.4 184 15.9 101870 78
2002-09-25 07:17:34 51°14.378 2°55.007 12.2 170 15.9 101870 78
2002-09-25 07:17:39 51°14.382 2°54.99 14 170 16 101880 79
2002-09-25 07:17:45 51°14.385 2°54.968 14.8 165 16 101880 79
2002-09-25 07:17:50 51°14.386 2°54.949 13.9 164 16 101890 79
2002-09-25 07:17:54 51°14.387 2°54.933 12.2 162 16 101890 79
2002-09-25 07:17:59 51°14.387 2°54.912 12.5 153 16 101880 79
2002-09-25 07:18:04 51°14.387 2°54.89 11.7 160 16 101880 79
2002-09-25 07:18:09 51°14.387 2°54.867 13.7 171 16 101870 78
2002-09-25 07:18:14 51°14.386 2°54.844 13.9 168 16 101870 78
2002-09-25 07:18:19 51°14.386 2°54.82 12.2 160 16 101880 78
2002-09-25 07:18:23 51°14.385 2°54.8 10.9 165 16 101880 78
2002-09-25 07:18:29 51°14.384 2°54.77 11.8 175 16 101880 78
2002-09-25 07:18:34 51°14.383 2°54.745 13 168 16 101880 78
2002-09-25 07:18:39 51°14.383 2°54.719 13.9 168 16 101890 78
2002-09-25 07:18:44 51°14.382 2°54.692 12 168 16 101890 78
2002-09-25 07:18:49 51°14.381 2°54.664 12.2 160 16 101880 78
2002-09-25 07:18:54 51°14.38 2°54.636 13.5 173 16 101880 78
2002-09-25 07:18:59 51°14.379 2°54.608 14.9 164 16 101870 77
2002-09-25 07:19:03 51°14.377 2°54.584 11.2 158 16 101870 77
2002-09-25 07:19:09 51°14.373 2°54.549 10.3 151 16 101870 77
2002-09-25 07:19:14 51°14.369 2°54.52 12.6 161 16 101870 77
2002-09-25 07:19:19 51°14.364 2°54.491 10.9 157 16 101880 77
2002-09-25 07:19:24 51°14.359 2°54.461 11.2 162 16 101880 77
2002-09-25 07:19:29 51°14.354 2°54.432 9.6 162 16 101880 78
2002-09-25 07:19:39 51°14.345 2°54.372 10.6 170 16 101890 77
2002-09-25 07:19:43 51°14.34 2°54.348 11.1 160 16 101890 77
2002-09-25 07:19:50 51°14.334 2°54.305 10.8 157 16 101890 77
2002-09-25 07:19:54 51°14.329 2°54.281 11.4 168 16 101890 77
2002-09-25 07:19:59 51°14.325 2°54.251 12.5 170 16.1 101900 78
2002-09-25 07:20:04 51°14.319 2°54.22 12.2 167 16.1 101900 78
2002-09-25 07:20:09 51°14.315 2°54.19 11.7 164 16.1 101890 77
2002-09-25 07:20:14 51°14.309 2°54.159 11.9 166 16.1 101890 77
2002-09-25 07:20:19 51°14.304 2°54.129 11.3 166 16.1 101890 78
2002-09-25 07:20:22 51°14.301 2°54.111 10.7 160 16.1 101890 78
2002-09-25 07:20:29 51°14.293 2°54.068 11.5 171 16.1 101890 78
2002-09-25 07:20:34 51°14.287 2°54.038 13.9 163 16.1 101890 78
2002-09-25 07:20:39 51°14.281 2°54.007 13.1 167 16.1 101890 78
2002-09-25 07:20:44 51°14.275 2°53.977 10.2 172 16.1 101890 78
2002-09-25 07:20:50 51°14.268 2°53.94 13.1 164 16.1 101890 78
2002-09-25 07:20:54 51°14.264 2°53.916 13.9 164 16.1 101890 78
2002-09-25 07:20:59 51°14.258 2°53.885 13.2 162 16.1 101880 78
2002-09-25 07:21:05 51°14.252 2°53.848 11 161 16.1 101880 78
2002-09-25 07:21:09 51°14.248 2°53.824 12.5 166 16.1 101880 78
2002-09-25 07:21:13 51°14.243 2°53.799 11.5 168 16.1 101880 78
2002-09-25 07:21:18 51°14.238 2°53.768 13.6 159 16.1 101890 77
2002-09-25 07:21:24 51°14.231 2°53.731 10.2 160 16.1 101890 77
2002-09-25 07:21:29 51°14.224 2°53.701 12.1 163 16.1 101870 77
2002-09-25 07:21:34 51°14.216 2°53.671 10.9 160 16.1 101870 77
2002-09-25 07:21:39 51°14.208 2°53.641 10.4 160 16.1 101880 77
2002-09-25 07:21:43 51°14.202 2°53.617 12 153 16.1 101880 77
2002-09-25 07:21:49 51°14.191 2°53.582 11.8 152 16.1 101890 77
2002-09-25 07:21:55 51°14.179 2°53.548 10 145 16.1 101890 77
2002-09-25 07:21:59 51°14.172 2°53.525 10.5 143 16 101880 77
2002-09-25 07:22:02 51°14.165 2°53.508 10.2 153 16 101880 77
2002-09-25 07:22:09 51°14.151 2°53.468 10 145 16.1 101900 77
2002-09-25 07:22:14 51°14.141 2°53.44 9.9 144 16.1 101900 77
2002-09-25 07:22:19 51°14.131 2°53.411 9.4 147 16 101890 77
2002-09-25 07:22:23 51°14.124 2°53.388 8.5 155 16 101890 77
2002-09-25 07:22:29 51°14.111 2°53.354 8.7 149 16 101900 77
2002-09-25 07:22:34 51°14.102 2°53.325 7.6 144 16 101900 77
2002-09-25 07:22:38 51°14.092 2°53.304 10.4 146 16 101900 77
2002-09-25 07:22:43 51°14.084 2°53.273 8.5 160 16 101900 77
2002-09-25 07:22:49 51°14.07 2°53.241 11 150 16 101910 77
2002-09-25 07:22:54 51°14.062 2°53.21 8.8 140 16 101910 77
2002-09-25 07:22:59 51°14.051 2°53.182 9 147 16 101900 77
2002-09-25 07:23:05 51°14.039 2°53.148 7.9 148 16 101900 77
2002-09-25 07:23:10 51°14.03 2°53.119 9.1 147 16.1 101920 77
2002-09-25 07:23:14 51°14.02 2°53.098 10.3 152 16.1 101920 77
2002-09-25 07:23:19 51°14.011 2°53.068 8.8 146 16.1 101910 77
2002-09-25 07:23:25 51°13.998 2°53.035 9.1 153 16.1 101910 77
2002-09-25 07:23:30 51°13.989 2°53.006 8.6 157 16.1 101910 77
2002-09-25 07:23:34 51°13.98 2°52.984 9.3 162 16.1 101910 77
2002-09-25 07:23:40 51°13.968 2°52.949 10.3 158 16.1 101910 77
2002-09-25 07:23:45 51°13.958 2°52.92 11.9 154 16.1 101910 77
2002-09-25 07:23:50 51°13.947 2°52.893 10.4 154 16.1 101910 77
2002-09-25 07:23:54 51°13.94 2°52.869 9.3 154 16.1 101910 77
2002-09-25 07:23:59 51°13.929 2°52.84 8.2 158 16.1 101920 77
2002-09-25 07:24:05 51°13.918 2°52.806 9 153 16.1 101920 77
2002-09-25 07:24:10 51°13.907 2°52.777 10.5 157 16.1 101900 77
2002-09-25 07:24:15 51°13.898 2°52.747 9.9 160 16.1 101900 77
2002-09-25 07:24:19 51°13.889 2°52.724 9.3 161 16.1 101900 77
2002-09-25 07:24:25 51°13.878 2°52.689 9.2 159 16.1 101900 77
2002-09-25 07:24:30 51°13.867 2°52.661 8.6 160 16.1 101900 77
2002-09-25 07:24:35 51°13.859 2°52.631 8.4 159 16.1 101900 77
2002-09-25 07:24:39 51°13.85 2°52.609 11.5 146 16.1 101900 77
2002-09-25 07:24:45 51°13.838 2°52.574 9.2 157 16.1 101900 77
2002-09-25 07:24:50 51°13.829 2°52.545 9.4 151 16.1 101910 78
2002-09-25 07:24:55 51°13.819 2°52.516 8.8 154 16.1 101910 78
2002-09-25 07:24:59 51°13.81 2°52.493 9.4 156 16.1 101900 77
2002-09-25 07:25:05 51°13.799 2°52.458 8.5 148 16.1 101900 77
2002-09-25 07:25:10 51°13.789 2°52.429 9.6 152 16.1 101900 77
2002-09-25 07:25:15 51°13.779 2°52.4 9.6 158 16.1 101900 77
2002-09-25 07:25:20 51°13.769 2°52.37 10.3 149 16.1 101910 77
2002-09-25 07:25:25 51°13.76 2°52.341 8.5 155 16.1 101910 77
2002-09-25 07:25:30 51°13.748 2°52.312 8.8 146 16.1 101900 77
2002-09-25 07:25:35 51°13.739 2°52.282 8.5 144 16.1 101900 77
2002-09-25 07:25:39 51°13.729 2°52.26 9.1 157 16.1 101890 77
2002-09-25 07:25:43 51°13.722 2°52.235 8.7 154 16.1 101890 77
2002-09-25 07:25:50 51°13.707 2°52.194 7.3 149 16.1 101910 77
2002-09-25 07:25:55 51°13.696 2°52.165 9.6 162 16.1 101910 77
2002-09-25 07:25:59 51°13.687 2°52.142 9.8 155 16.1 101900 77
2002-09-25 07:26:05 51°13.675 2°52.106 9 144 16.1 101900 77
2002-09-25 07:26:10 51°13.664 2°52.077 8.6 151 16.1 101910 77
2002-09-25 07:26:15 51°13.653 2°52.047 9.1 153 16.1 101910 77
2002-09-25 07:26:19 51°13.644 2°52.023 9.2 149 16.1 101910 78
2002-09-25 07:26:25 51°13.631 2°51.989 9.3 142 16.1 101910 78
2002-09-25 07:26:30 51°13.619 2°51.962 8 159 16.1 101900 78
2002-09-25 07:26:35 51°13.607 2°51.932 9.3 156 16.1 101900 78
2002-09-25 07:26:39 51°13.599 2°51.908 7.5 168 16.1 101910 78
2002-09-25 07:26:45 51°13.585 2°51.873 7.6 152 16.1 101910 78
2002-09-25 07:26:50 51°13.574 2°51.845 7.5 147 16.1 101900 77
2002-09-25 07:26:54 51°13.565 2°51.821 9.6 156 16.1 101900 77
2002-09-25 07:26:59 51°13.555 2°51.791 8.5 157 16.1 101920 78
2002-09-25 07:27:05 51°13.542 2°51.756 10.2 154 16.1 101920 78
2002-09-25 07:27:10 51°13.532 2°51.726 9.2 151 16.1 101910 78
2002-09-25 07:27:15 51°13.52 2°51.698 9.4 154 16.1 101910 78
2002-09-25 07:27:19 51°13.512 2°51.673 8.8 154 16.1 101910 78
2002-09-25 07:27:22 51°13.506 2°51.655 8.2 151 16.1 101910 78
2002-09-25 07:27:30 51°13.488 2°51.609 10.6 156 16.1 101910 77
2002-09-25 07:27:35 51°13.476 2°51.581 9.1 152 16.1 101910 77
2002-09-25 07:27:40 51°13.465 2°51.552 10.4 151 16.1 101920 77
2002-09-25 07:27:45 51°13.453 2°51.523 9.9 151 16.1 101920 77
2002-09-25 07:27:50 51°13.443 2°51.493 8.8 153 16.1 101910 78
2002-09-25 07:27:54 51°13.434 2°51.469 8.9 151 16.1 101910 78
2002-09-25 07:27:59 51°13.424 2°51.439 10 145 16.1 101910 77
2002-09-25 07:28:05 51°13.41 2°51.406 9.5 152 16.1 101910 77
2002-09-25 07:28:10 51°13.4 2°51.376 9.2 149 16.1 101900 77
2002-09-25 07:28:15 51°13.39 2°51.346 9.6 157 16.1 101900 77
2002-09-25 07:28:20 51°13.379 2°51.316 8.4 160 16.1 101910 77
2002-09-25 07:28:25 51°13.368 2°51.287 11.6 151 16.1 101910 77
2002-09-25 07:28:29 51°13.361 2°51.263 9 149 16.1 101920 77
2002-09-25 07:28:34 51°13.349 2°51.235 10.8 145 16.1 101920 77
2002-09-25 07:28:39 51°13.339 2°51.204 9.5 154 16.1 101920 77
2002-09-25 07:28:45 51°13.326 2°51.169 10.9 145 16.1 101920 77
2002-09-25 07:28:50 51°13.316 2°51.14 9.3 153 16 101910 77
2002-09-25 07:28:55 51°13.304 2°51.111 10.9 152 16 101910 77
2002-09-25 07:28:59 51°13.297 2°51.086 8.7 160 16 101900 77
2002-09-25 07:29:05 51°13.284 2°51.051 10.9 154 16 101900 77
2002-09-25 07:29:10 51°13.273 2°51.022 9.1 142 16.1 101920 77
2002-09-25 07:29:15 51°13.262 2°50.993 8.2 153 16.1 101920 77
2002-09-25 07:29:19 51°13.253 2°50.969 7.2 144 16 101920 77
2002-09-25 07:29:25 51°13.239 2°50.936 7.9 144 16 101920 77
2002-09-25 07:29:30 51°13.228 2°50.907 8.5 156 16 101910 77
2002-09-25 07:29:35 51°13.218 2°50.876 7.9 158 16 101910 77
2002-09-25 07:29:39 51°13.208 2°50.854 9.7 151 16 101920 77
2002-09-25 07:29:45 51°13.196 2°50.818 9.8 142 16 101920 77
2002-09-25 07:29:49 51°13.188 2°50.795 8.2 147 16.1 101920 77
2002-09-25 07:29:54 51°13.176 2°50.765 6.9 155 16.1 101920 77
2002-09-25 07:29:59 51°13.166 2°50.736 7.9 158 16.1 101910 77
2002-09-25 07:30:05 51°13.154 2°50.7 9.8 157 16.1 101910 77
2002-09-25 07:30:09 51°13.145 2°50.676 9.3 156 16 101920 76
2002-09-25 07:30:15 51°13.133 2°50.641 9.2 159 16 101920 76
2002-09-25 07:30:20 51°13.122 2°50.611 8.8 155 16.1 101910 77
2002-09-25 07:30:25 51°13.111 2°50.582 8.7 153 16.1 101910 77
2002-09-25 07:30:30 51°13.1 2°50.554 8.7 156 16.1 101920 77
2002-09-25 07:30:35 51°13.088 2°50.525 10 153 16.1 101920 77
2002-09-25 07:30:40 51°13.077 2°50.495 8.6 159 16.1 101920 77
2002-09-25 07:30:45 51°13.066 2°50.466 9.8 162 16.1 101920 77
2002-09-25 07:30:50 51°13.055 2°50.438 7.5 163 16.1 101920 77
2002-09-25 07:30:55 51°13.044 2°50.409 9.9 154 16.1 101920 77
2002-09-25 07:30:59 51°13.034 2°50.387 8.9 162 16.1 101920 77
2002-09-25 07:31:05 51°13.021 2°50.351 10.2 151 16.1 101920 77
2002-09-25 07:31:10 51°13.01 2°50.322 9.6 149 16.2 101910 78
2002-09-25 07:31:15 51°12.999 2°50.293 10.6 161 16.2 101910 78
2002-09-25 07:31:19 51°12.991 2°50.269 10.2 153 16.2 101910 78
2002-09-25 07:31:25 51°12.978 2°50.234 9.9 149 16.2 101910 78
2002-09-25 07:31:30 51°12.967 2°50.205 12.2 152 16.2 101910 78
2002-09-25 07:31:35 51°12.955 2°50.176 10 151 16.2 101910 78
2002-09-25 07:31:39 51°12.946 2°50.152 9.4 151 16.2 101920 77
2002-09-25 07:31:45 51°12.933 2°50.118 9.1 163 16.2 101920 77
2002-09-25 07:31:50 51°12.922 2°50.089 9.6 152 16.2 101900 77
2002-09-25 07:31:55 51°12.912 2°50.059 8 159 16.2 101900 77
2002-09-25 07:31:59 51°12.901 2°50.038 10.9 155 16.1 101900 77
2002-09-25 07:32:03 51°12.894 2°50.013 9.8 148 16.1 101900 77
2002-09-25 07:32:10 51°12.877 2°49.973 9.3 163 16.1 101920 78
2002-09-25 07:32:15 51°12.867 2°49.943 9.5 165 16.1 101920 78
2002-09-25 07:32:19 51°12.857 2°49.92 10.6 152 16.2 101910 78
2002-09-25 07:32:25 51°12.845 2°49.884 11.1 153 16.2 101910 78
2002-09-25 07:32:30 51°12.834 2°49.855 12.8 145 16.2 101920 78
2002-09-25 07:32:34 51°12.825 2°49.832 10.9 150 16.2 101920 78
2002-09-25 07:32:39 51°12.814 2°49.803 8.7 137 16.2 101920 78
2002-09-25 07:32:43 51°12.805 2°49.78 11.5 148 16.2 101920 78
2002-09-25 07:32:50 51°12.79 2°49.737 9.8 143 16.1 101910 78
2002-09-25 07:32:55 51°12.778 2°49.71 10.8 151 16.1 101910 78
2002-09-25 07:32:59 51°12.77 2°49.686 9.8 153 16.1 101920 78
2002-09-25 07:33:05 51°12.756 2°49.651 9.6 155 16.1 101920 78
2002-09-25 07:33:09 51°12.747 2°49.627 8.9 158 16.1 101920 78
2002-09-25 07:33:15 51°12.733 2°49.593 8.2 147 16.1 101920 78
2002-09-25 07:33:19 51°12.723 2°49.57 10.4 147 16.2 101910 78
2002-09-25 07:33:25 51°12.71 2°49.534 8.5 144 16.2 101910 78
2002-09-25 07:33:30 51°12.699 2°49.505 10.8 142 16.2 101920 78
2002-09-25 07:33:35 51°12.687 2°49.477 9.8 147 16.2 101920 78
2002-09-25 07:33:39 51°12.678 2°49.454 10.2 146 16.2 101920 78
2002-09-25 07:33:44 51°12.668 2°49.422 8.4 144 16.2 101920 78
2002-09-25 07:33:49 51°12.656 2°49.395 9.8 158 16.1 101920 78
2002-09-25 07:33:55 51°12.644 2°49.358 8 157 16.1 101920 78
2002-09-25 07:33:59 51°12.635 2°49.335 11.2 158 16.1 101920 78
2002-09-25 07:34:05 51°12.622 2°49.299 10.4 152 16.1 101920 78
2002-09-25 07:34:10 51°12.61 2°49.27 12.2 151 16.2 101910 78
2002-09-25 07:34:15 51°12.6 2°49.241 9 160 16.2 101910 78
2002-09-25 07:34:19 51°12.59 2°49.218 11 151 16.2 101920 78
2002-09-25 07:34:23 51°12.582 2°49.194 9.4 147 16.2 101920 78
2002-09-25 07:34:30 51°12.565 2°49.154 9.9 157 16.1 101920 78
2002-09-25 07:34:35 51°12.554 2°49.125 9.8 149 16.1 101920 78
2002-09-25 07:34:40 51°12.542 2°49.096 9.2 154 16.2 101920 78
2002-09-25 07:34:45 51°12.53 2°49.068 9.1 148 16.2 101920 78
2002-09-25 07:34:49 51°12.52 2°49.046 11.6 152 16.1 101920 78
2002-09-25 07:34:55 51°12.507 2°49.009 8.3 150 16.1 101920 78
2002-09-25 07:34:59 51°12.497 2°48.988 10.3 142 16.2 101920 78
2002-09-25 07:35:05 51°12.483 2°48.955 10.4 147 16.2 101920 78
2002-09-25 07:35:10 51°12.472 2°48.924 7.9 160 16.1 101910 78
2002-09-25 07:35:15 51°12.461 2°48.896 8.4 156 16.1 101910 78
2002-09-25 07:35:19 51°12.452 2°48.872 10.6 150 16.1 101920 78
2002-09-25 07:35:23 51°12.444 2°48.849 8.4 155 16.1 101920 78
2002-09-25 07:35:30 51°12.428 2°48.808 10.5 155 16.1 101930 78
2002-09-25 07:35:35 51°12.417 2°48.78 10 146 16.1 101930 78
2002-09-25 07:35:40 51°12.406 2°48.751 10.3 153 16.2 101920 78
2002-09-25 07:35:45 51°12.395 2°48.721 10.2 147 16.2 101920 78
2002-09-25 07:35:50 51°12.383 2°48.693 8.8 151 16.1 101920 78
2002-09-25 07:35:55 51°12.372 2°48.664 10 148 16.1 101920 78
2002-09-25 07:35:59 51°12.362 2°48.641 8.5 153 16.2 101920 78
2002-09-25 07:36:02 51°12.355 2°48.624 9.4 150 16.2 101920 78
2002-09-25 07:36:10 51°12.337 2°48.579 9.5 148 16.1 101920 78
2002-09-25 07:36:15 51°12.325 2°48.551 9.9 145 16.1 101920 78
2002-09-25 07:36:20 51°12.313 2°48.523 8.7 146 16.1 101930 78
2002-09-25 07:36:25 51°12.302 2°48.494 8.5 150 16.1 101930 78
2002-09-25 07:36:30 51°12.289 2°48.466 10.9 148 16.1 101930 78
2002-09-25 07:36:34 51°12.282 2°48.442 8.7 152 16.1 101930 78
2002-09-25 07:36:39 51°12.269 2°48.414 11.2 148 16.1 101920 78
2002-09-25 07:36:45 51°12.258 2°48.378 8.7 148 16.1 101920 78
2002-09-25 07:36:50 51°12.245 2°48.351 10.8 146 16.1 101930 78
2002-09-25 07:36:55 51°12.235 2°48.321 9.2 147 16.1 101930 78
2002-09-25 07:36:59 51°12.227 2°48.298 8.5 150 16.1 101920 78
2002-09-25 07:37:05 51°12.214 2°48.263 9 147 16.1 101920 78
2002-09-25 07:37:09 51°12.206 2°48.239 9 160 16.1 101920 78
2002-09-25 07:37:15 51°12.193 2°48.203 9.4 153 16.1 101920 78
2002-09-25 07:37:20 51°12.182 2°48.175 8.3 144 16.1 101920 78
2002-09-25 07:37:23 51°12.176 2°48.157 10.9 150 16.1 101920 78
2002-09-25 07:37:30 51°12.161 2°48.116 11.1 148 16.1 101940 78
2002-09-25 07:37:35 51°12.15 2°48.088 9 145 16.1 101940 78
2002-09-25 07:37:39 51°12.142 2°48.065 10.5 148 16.1 101910 78
2002-09-25 07:37:43 51°12.133 2°48.041 9.6 155 16.1 101910 78
2002-09-25 07:37:49 51°12.121 2°48.005 10.6 146 16.1 101920 78
2002-09-25 07:37:55 51°12.108 2°47.971 8 154 16.1 101920 78
2002-09-25 07:37:59 51°12.099 2°47.947 9.9 154 16.1 101930 78
2002-09-25 07:38:05 51°12.088 2°47.911 8.3 171 16.1 101930 78
2002-09-25 07:38:10 51°12.079 2°47.881 8.5 155 16.1 101930 78
2002-09-25 07:38:14 51°12.071 2°47.857 10.3 149 16.1 101930 78
2002-09-25 07:38:19 51°12.061 2°47.827 10 145 16.1 101930 78
2002-09-25 07:38:24 51°12.051 2°47.798 9.3 158 16.1 101930 78
2002-09-25 07:38:30 51°12.04 2°47.761 11.8 148 16.1 101930 78
2002-09-25 07:38:35 51°12.03 2°47.732 11.6 143 16.1 101930 78
2002-09-25 07:38:39 51°12.022 2°47.708 8.1 146 16.1 101930 78
2002-09-25 07:38:43 51°12.013 2°47.685 9.9 159 16.1 101930 78
2002-09-25 07:38:50 51°12.001 2°47.641 9.2 157 16.1 101930 78
2002-09-25 07:38:55 51°11.99 2°47.613 11.3 170 16.1 101930 78
2002-09-25 07:38:59 51°11.983 2°47.587 12.2 156 16.1 101920 78
2002-09-25 07:39:05 51°11.972 2°47.552 10.1 153 16.1 101920 78
2002-09-25 07:39:10 51°11.961 2°47.522 10.5 159 16.1 101930 78
2002-09-25 07:39:15 51°11.952 2°47.49 11.2 158 16.1 101930 78
2002-09-25 07:39:19 51°11.945 2°47.466 10.2 159 16.1 101940 78
2002-09-25 07:39:23 51°11.937 2°47.442 10.7 161 16.1 101940 78
2002-09-25 07:39:29 51°11.928 2°47.405 10.2 157 16.1 101920 78
2002-09-25 07:39:35 51°11.916 2°47.369 11.9 157 16.1 101920 78
2002-09-25 07:39:40 51°11.909 2°47.338 11.1 152 16.1 101920 78
2002-09-25 07:39:45 51°11.898 2°47.308 12.9 150 16.1 101920 78
2002-09-25 07:39:49 51°11.893 2°47.283 11.3 153 16.1 101910 78
2002-09-25 07:39:55 51°11.882 2°47.247 11.9 161 16.1 101910 78
2002-09-25 07:39:59 51°11.876 2°47.221 9.7 151 16.1 101910 77
2002-09-25 07:40:04 51°11.867 2°47.191 10.3 166 16.1 101910 77
2002-09-25 07:40:09 51°11.858 2°47.16 12.6 157 16.1 101910 78
2002-09-25 07:40:15 51°11.847 2°47.124 12.4 147 16.1 101910 78
2002-09-25 07:40:19 51°11.842 2°47.098 9.5 153 16.1 101910 77
2002-09-25 07:40:25 51°11.831 2°47.062 10.2 166 16.1 101910 77
2002-09-25 07:40:30 51°11.822 2°47.031 11.7 149 16.1 101920 77
2002-09-25 07:40:35 51°11.815 2°47 9.6 153 16.1 101920 77
2002-09-25 07:40:39 51°11.808 2°46.975 10.6 155 16 101920 77
2002-09-25 07:40:45 51°11.799 2°46.938 10.4 155 16 101920 77
2002-09-25 07:40:49 51°11.793 2°46.913 10.2 157 16.1 101920 77
2002-09-25 07:40:55 51°11.783 2°46.876 10.2 153 16.1 101920 77
2002-09-25 07:40:59 51°11.776 2°46.851 10.3 150 16.1 101920 77
2002-09-25 07:41:05 51°11.767 2°46.814 10.4 152 16.1 101920 77
2002-09-25 07:41:10 51°11.758 2°46.783 10.4 162 16.1 101930 77
2002-09-25 07:41:15 51°11.75 2°46.752 10.2 147 16.1 101930 77
2002-09-25 07:41:19 51°11.743 2°46.727 10.8 152 16.1 101930 77
2002-09-25 07:41:25 51°11.734 2°46.689 10.2 160 16.1 101930 77
2002-09-25 07:41:30 51°11.726 2°46.659 11.9 152 16 101920 77
2002-09-25 07:41:35 51°11.717 2°46.628 11.5 154 16 101920 77
2002-09-25 07:41:39 51°11.711 2°46.603 10.9 157 16.1 101920 77
2002-09-25 07:41:45 51°11.701 2°46.566 10.7 151 16.1 101920 77
2002-09-25 07:41:49 51°11.695 2°46.541 10.1 155 16.1 101920 77
2002-09-25 07:41:55 51°11.686 2°46.503 11.5 154 16.1 101920 77
2002-09-25 07:41:59 51°11.679 2°46.478 12.9 144 16.1 101930 77
2002-09-25 07:42:05 51°11.67 2°46.44 10.4 160 16.1 101930 77
2002-09-25 07:42:10 51°11.662 2°46.408 11.2 160 16.1 101920 77
2002-09-25 07:42:15 51°11.656 2°46.377 9.8 157 16.1 101920 77
2002-09-25 07:42:19 51°11.649 2°46.353 11.1 162 16.1 101910 77
2002-09-25 07:42:24 51°11.641 2°46.32 11 147 16.1 101910 77
2002-09-25 07:42:30 51°11.632 2°46.283 10.3 155 16.1 101930 77
2002-09-25 07:42:35 51°11.625 2°46.25 9.1 170 16.1 101930 77
2002-09-25 07:42:39 51°11.618 2°46.225 8.9 161 16.1 101920 77
2002-09-25 07:42:43 51°11.613 2°46.2 10.1 166 16.1 101920 77
2002-09-25 07:42:50 51°11.601 2°46.156 11 161 16.1 101920 77
2002-09-25 07:42:55 51°11.597 2°46.123 9.7 162 16.1 101920 77
2002-09-25 07:42:59 51°11.59 2°46.099 10.4 164 16.2 101920 78
2002-09-25 07:43:03 51°11.585 2°46.073 11.3 164 16.2 101920 78
2002-09-25 07:43:10 51°11.576 2°46.029 13.1 164 16.2 101930 78
2002-09-25 07:43:15 51°11.569 2°45.997 12.3 153 16.2 101930 78
2002-09-25 07:43:19 51°11.565 2°45.972 9.6 158 16.2 101910 78
2002-09-25 07:43:23 51°11.557 2°45.947 13.5 159 16.2 101910 78
2002-09-25 07:43:30 51°11.549 2°45.902 10.4 166 16.2 101920 78
2002-09-25 07:43:35 51°11.541 2°45.871 13.2 164 16.2 101920 78
2002-09-25 07:43:39 51°11.537 2°45.845 9.8 156 16.2 101910 77
2002-09-25 07:43:45 51°11.526 2°45.808 11 159 16.2 101910 77
2002-09-25 07:43:49 51°11.522 2°45.782 9.2 157 16.2 101920 77
2002-09-25 07:43:55 51°11.511 2°45.744 11.7 149 16.2 101920 77
2002-09-25 07:43:59 51°11.508 2°45.719 10.7 166 16.1 101920 77
2002-09-25 07:44:05 51°11.497 2°45.683 11.4 157 16.1 101920 77
2002-09-25 07:44:09 51°11.492 2°45.657 13 150 16.2 101920 77
2002-09-25 07:44:14 51°11.484 2°45.626 11.7 160 16.2 101920 77
2002-09-25 07:44:19 51°11.477 2°45.594 10.6 162 16.1 101920 77
2002-09-25 07:44:25 51°11.468 2°45.557 9.7 158 16.1 101920 77
2002-09-25 07:44:30 51°11.461 2°45.525 10.3 160 16.1 101920 77
2002-09-25 07:44:35 51°11.454 2°45.493 9.8 156 16.1 101920 77
2002-09-25 07:44:40 51°11.445 2°45.462 11.2 158 16.1 101930 77
2002-09-25 07:44:44 51°11.439 2°45.436 9.9 161 16.1 101930 77
2002-09-25 07:44:50 51°11.432 2°45.398 9.5 166 16.1 101920 77
2002-09-25 07:44:55 51°11.423 2°45.367 13.4 162 16.1 101920 77
2002-09-25 07:44:59 51°11.42 2°45.34 9.6 166 16.1 101920 77
2002-09-25 07:45:05 51°11.41 2°45.303 11.6 156 16.1 101920 77
2002-09-25 07:45:10 51°11.404 2°45.27 11.9 161 16.2 101920 78
2002-09-25 07:45:15 51°11.397 2°45.239 9.9 154 16.2 101920 78
2002-09-25 07:45:19 51°11.391 2°45.214 12.3 156 16.2 101920 78
2002-09-25 07:45:25 51°11.382 2°45.177 11.4 161 16.2 101920 78
2002-09-25 07:45:30 51°11.375 2°45.144 12 159 16.2 101930 78
2002-09-25 07:45:34 51°11.369 2°45.12 13.4 161 16.2 101930 78
2002-09-25 07:45:39 51°11.362 2°45.088 12.9 158 16.2 101920 77
2002-09-25 07:45:45 51°11.352 2°45.049 10.8 154 16.2 101920 77
2002-09-25 07:45:50 51°11.344 2°45.018 10.6 162 16.2 101920 78
2002-09-25 07:45:54 51°11.338 2°44.992 11.6 155 16.2 101920 78
2002-09-25 07:45:59 51°11.332 2°44.96 11.3 166 16.2 101920 77
2002-09-25 07:46:05 51°11.322 2°44.922 11.6 147 16.2 101920 77
2002-09-25 07:46:10 51°11.315 2°44.891 9.9 157 16.1 101920 77
2002-09-25 07:46:15 51°11.307 2°44.86 10 158 16.1 101920 77
2002-09-25 07:46:19 51°11.301 2°44.835 11.5 158 16.1 101920 77
2002-09-25 07:46:22 51°11.296 2°44.816 11.1 157 16.1 101920 77
2002-09-25 07:46:30 51°11.284 2°44.765 9.6 156 16.1 101930 77
2002-09-25 07:46:35 51°11.275 2°44.735 10.9 157 16.1 101930 77
2002-09-25 07:46:39 51°11.27 2°44.708 10.2 159 16.1 101920 77
2002-09-25 07:46:44 51°11.262 2°44.677 9.9 153 16.1 101920 77
2002-09-25 07:46:50 51°11.252 2°44.64 10.6 157 16.1 101930 77
2002-09-25 07:46:55 51°11.245 2°44.607 11.2 155 16.1 101930 77
2002-09-25 07:46:59 51°11.24 2°44.581 9.8 165 16.1 101930 77
2002-09-25 07:47:03 51°11.233 2°44.556 9.5 157 16.1 101930 77
2002-09-25 07:47:09 51°11.223 2°44.519 11.8 153 16.1 101920 77
2002-09-25 07:47:15 51°11.214 2°44.48 10.5 158 16.1 101920 77
2002-09-25 07:47:20 51°11.208 2°44.449 9.5 158 16.1 101920 77
2002-09-25 07:47:23 51°11.202 2°44.431 12.6 159 16.1 101920 77
2002-09-25 07:47:30 51°11.193 2°44.385 9.5 160 16.1 101930 77
2002-09-25 07:47:35 51°11.184 2°44.355 12.2 151 16.1 101930 77
2002-09-25 07:47:39 51°11.179 2°44.33 10.8 155 16.1 101920 77
2002-09-25 07:47:43 51°11.171 2°44.306 11.2 154 16.1 101920 77
2002-09-25 07:47:50 51°11.161 2°44.261 9.8 166 16.2 101930 77
2002-09-25 07:47:55 51°11.152 2°44.231 13.2 154 16.2 101930 77
2002-09-25 07:47:59 51°11.148 2°44.205 12.3 151 16.1 101920 77
2002-09-25 07:48:05 51°11.139 2°44.167 11.7 165 16.1 101920 77
2002-09-25 07:48:10 51°11.134 2°44.135 11.6 160 16.1 101920 77
2002-09-25 07:48:15 51°11.127 2°44.103 10.2 163 16.1 101920 77
2002-09-25 07:48:19 51°11.123 2°44.076 10.5 163 16.1 101930 77
2002-09-25 07:48:23 51°11.119 2°44.051 10.9 157 16.1 101930 77
2002-09-25 07:48:30 51°11.11 2°44.006 11 162 16.1 101920 77
2002-09-25 07:48:35 51°11.105 2°43.974 10.8 166 16.1 101920 77
2002-09-25 07:48:39 51°11.099 2°43.948 11.4 161 16.1 101920 77
2002-09-25 07:48:43 51°11.096 2°43.922 11.2 167 16.1 101920 77
2002-09-25 07:48:50 51°11.087 2°43.877 14.2 160 16.1 101930 77
2002-09-25 07:48:55 51°11.081 2°43.845 13 155 16.1 101930 77
2002-09-25 07:48:59 51°11.077 2°43.819 13.2 156 16.1 101930 77
2002-09-25 07:49:03 51°11.072 2°43.793 11.6 154 16.1 101930 77
2002-09-25 07:49:10 51°11.065 2°43.747 9.3 151 16.1 101940 77
2002-09-25 07:49:15 51°11.058 2°43.716 10.1 157 16.1 101940 77
2002-09-25 07:49:19 51°11.055 2°43.69 10.9 157 16.1 101920 76
2002-09-25 07:49:23 51°11.049 2°43.664 11.1 169 16.1 101920 76
2002-09-25 07:49:30 51°11.042 2°43.617 11.5 166 16.1 101920 77
2002-09-25 07:49:35 51°11.036 2°43.585 11.2 158 16.1 101920 77
2002-09-25 07:49:39 51°11.033 2°43.559 8.8 161 16.1 101920 77
2002-09-25 07:49:45 51°11.025 2°43.521 12.4 167 16.1 101920 77
2002-09-25 07:49:50 51°11.02 2°43.487 12 163 16.1 101920 77
2002-09-25 07:49:54 51°11.015 2°43.461 10.9 170 16.1 101920 77
2002-09-25 07:49:58 51°11.011 2°43.435 10.2 158 16.2 101930 77
2002-09-25 07:50:05 51°11.002 2°43.389 11.1 158 16.2 101930 77
2002-09-25 07:50:10 51°10.997 2°43.357 11.5 154 16.2 101940 77
2002-09-25 07:50:15 51°10.992 2°43.323 12.8 160 16.2 101940 77
2002-09-25 07:50:19 51°10.986 2°43.298 11.9 153 16.2 101930 77
2002-09-25 07:50:25 51°10.98 2°43.26 13 157 16.2 101930 77
2002-09-25 07:50:30 51°10.975 2°43.227 9.8 156 16.2 101920 77
2002-09-25 07:50:35 51°10.969 2°43.194 12.2 153 16.2 101920 77
2002-09-25 07:50:39 51°10.964 2°43.168 10.9 158 16.2 101920 77
2002-09-25 07:50:45 51°10.957 2°43.129 10.9 158 16.2 101920 77
2002-09-25 07:50:50 51°10.952 2°43.096 11.3 164 16.1 101930 77
2002-09-25 07:50:55 51°10.947 2°43.063 11.1 157 16.1 101930 77
2002-09-25 07:50:59 51°10.942 2°43.037 10.2 159 16.1 101930 77
2002-09-25 07:51:05 51°10.935 2°42.998 10.3 159 16.1 101930 77
2002-09-25 07:51:09 51°10.93 2°42.972 10.2 151 16.2 101930 77
2002-09-25 07:51:15 51°10.924 2°42.932 10.8 154 16.2 101930 77
2002-09-25 07:51:20 51°10.918 2°42.9 12.8 150 16.1 101930 76
2002-09-25 07:51:23 51°10.916 2°42.88 10 163 16.1 101930 76
2002-09-25 07:51:30 51°10.907 2°42.836 10.1 156 16.2 101930 77
2002-09-25 07:51:35 51°10.901 2°42.803 11.7 163 16.2 101930 77
2002-09-25 07:51:39 51°10.896 2°42.777 11.8 160 16.1 101920 77
2002-09-25 07:51:43 51°10.892 2°42.75 12.1 159 16.1 101920 77
2002-09-25 07:51:50 51°10.884 2°42.706 12.3 148 16.2 101930 77
2002-09-25 07:51:55 51°10.877 2°42.675 9.8 156 16.2 101930 77
2002-09-25 07:51:59 51°10.873 2°42.648 9.6 173 16.2 101930 77
2002-09-25 07:52:05 51°10.866 2°42.609 11.7 165 16.2 101930 77
2002-09-25 07:52:10 51°10.86 2°42.576 10.5 160 16.2 101930 77
2002-09-25 07:52:15 51°10.855 2°42.544 12.4 170 16.2 101930 77
2002-09-25 07:52:19 51°10.851 2°42.518 9 165 16.2 101930 78
2002-09-25 07:52:25 51°10.842 2°42.48 14.1 154 16.2 101930 78
2002-09-25 07:52:30 51°10.837 2°42.447 11.5 159 16.2 101920 77
2002-09-25 07:52:35 51°10.831 2°42.414 11.4 169 16.2 101920 77
2002-09-25 07:52:39 51°10.827 2°42.388 10.9 163 16.2 101930 77
2002-09-25 07:52:45 51°10.821 2°42.35 11.4 164 16.2 101930 77
2002-09-25 07:52:50 51°10.814 2°42.318 13 166 16.2 101920 77
2002-09-25 07:52:54 51°10.81 2°42.291 12.8 160 16.2 101920 77
2002-09-25 07:52:58 51°10.805 2°42.265 10.1 162 16.2 101930 77
2002-09-25 07:53:02 51°10.801 2°42.239 11.8 157 16.2 101930 77
2002-09-25 07:53:10 51°10.791 2°42.188 11.9 159 16.2 101920 77
2002-09-25 07:53:15 51°10.785 2°42.156 11.3 164 16.2 101920 77
2002-09-25 07:53:19 51°10.782 2°42.13 10.3 168 16.2 101930 77
2002-09-25 07:53:22 51°10.777 2°42.111 10.8 170 16.2 101930 77
2002-09-25 07:53:30 51°10.769 2°42.059 11.1 172 16.2 101940 77
2002-09-25 07:53:35 51°10.764 2°42.026 12.6 176 16.2 101940 77
2002-09-25 07:53:39 51°10.759 2°42 12 162 16.2 101920 77
2002-09-25 07:53:45 51°10.752 2°41.961 11.6 165 16.2 101920 77
2002-09-25 07:53:50 51°10.747 2°41.929 11.1 172 16.2 101930 78
2002-09-25 07:53:55 51°10.74 2°41.896 14.1 165 16.2 101930 78
2002-09-25 07:53:59 51°10.738 2°41.87 10.9 167 16.2 101920 77
2002-09-25 07:54:04 51°10.73 2°41.838 13.3 156 16.2 101920 77
2002-09-25 07:54:10 51°10.724 2°41.798 11.6 171 16.2 101920 77
2002-09-25 07:54:14 51°10.72 2°41.772 11.6 168 16.2 101920 77
2002-09-25 07:54:19 51°10.714 2°41.74 12.1 167 16.2 101920 77
2002-09-25 07:54:25 51°10.707 2°41.701 12.2 166 16.2 101920 77
2002-09-25 07:54:30 51°10.701 2°41.67 12.1 165 16.2 101930 77
2002-09-25 07:54:35 51°10.696 2°41.637 10.8 158 16.2 101930 77
2002-09-25 07:54:39 51°10.69 2°41.611 10.9 173 16.2 101930 77
2002-09-25 07:54:45 51°10.685 2°41.572 11.9 165 16.2 101930 77
2002-09-25 07:54:50 51°10.677 2°41.54 14.2 162 16.2 101920 77
2002-09-25 07:54:55 51°10.673 2°41.507 10.1 158 16.2 101920 77
2002-09-25 07:54:59 51°10.667 2°41.481 11.6 167 16.2 101920 77
2002-09-25 07:55:05 51°10.662 2°41.442 12.3 165 16.2 101920 77
2002-09-25 07:55:10 51°10.654 2°41.41 13.3 157 16.2 101910 77
2002-09-25 07:55:15 51°10.648 2°41.378 13.4 168 16.2 101910 77
2002-09-25 07:55:19 51°10.645 2°41.35 9.9 162 16.2 101920 77
2002-09-25 07:55:22 51°10.64 2°41.332 12.5 163 16.2 101920 77
2002-09-25 07:55:30 51°10.631 2°41.28 12.2 158 16.2 101920 77
2002-09-25 07:55:35 51°10.626 2°41.247 11.8 165 16.2 101920 77
2002-09-25 07:55:39 51°10.62 2°41.222 12.4 158 16.2 101920 77
2002-09-25 07:55:44 51°10.615 2°41.188 9.7 163 16.2 101920 77
2002-09-25 07:55:50 51°10.607 2°41.149 11.2 159 16.2 101920 77
2002-09-25 07:55:55 51°10.602 2°41.116 10.1 171 16.2 101920 77
2002-09-25 07:56:00 51°10.596 2°41.083 10.5 161 16.2 101920 77
2002-09-25 07:56:05 51°10.591 2°41.05 11.9 168 16.2 101920 77
2002-09-25 07:56:10 51°10.585 2°41.018 12.9 170 16.2 101930 77
2002-09-25 07:56:15 51°10.579 2°40.984 12.2 164 16.2 101930 77
2002-09-25 07:56:19 51°10.576 2°40.957 10.9 162 16.2 101930 78
2002-09-25 07:56:25 51°10.569 2°40.918 12.7 168 16.2 101930 78
2002-09-25 07:56:30 51°10.563 2°40.884 11.4 166 16.2 101930 78
2002-09-25 07:56:35 51°10.557 2°40.852 9.8 158 16.2 101930 78
2002-09-25 07:56:40 51°10.551 2°40.819 10.2 162 16.2 101930 77
2002-09-25 07:56:45 51°10.547 2°40.785 9.6 160 16.2 101930 77
2002-09-25 07:56:50 51°10.539 2°40.754 12.2 168 16.2 101930 77
2002-09-25 07:56:55 51°10.534 2°40.721 13.1 162 16.2 101930 77
2002-09-25 07:56:59 51°10.53 2°40.694 11.7 172 16.2 101930 77
2002-09-25 07:57:05 51°10.523 2°40.655 12 166 16.2 101930 77
2002-09-25 07:57:10 51°10.517 2°40.623 12.3 158 16.2 101930 78
2002-09-25 07:57:15 51°10.512 2°40.59 11 168 16.2 101930 78
2002-09-25 07:57:19 51°10.506 2°40.564 12.2 156 16.2 101930 78
2002-09-25 07:57:25 51°10.499 2°40.525 10.3 160 16.2 101930 78
2002-09-25 07:57:29 51°10.495 2°40.499 10.8 160 16.2 101930 78
2002-09-25 07:57:35 51°10.487 2°40.46 12.2 162 16.2 101930 78
2002-09-25 07:57:40 51°10.483 2°40.427 10.6 157 16.2 101930 77
2002-09-25 07:57:45 51°10.476 2°40.395 11.6 164 16.2 101930 77
2002-09-25 07:57:50 51°10.47 2°40.363 11.3 170 16.2 101930 77
2002-09-25 07:57:54 51°10.465 2°40.337 11.8 173 16.2 101930 77
2002-09-25 07:57:59 51°10.459 2°40.305 10.9 158 16.2 101940 78
2002-09-25 07:58:05 51°10.453 2°40.265 11.7 171 16.2 101940 78
2002-09-25 07:58:09 51°10.447 2°40.239 9.7 162 16.2 101930 78
2002-09-25 07:58:15 51°10.441 2°40.2 10.7 163 16.2 101930 78
2002-09-25 07:58:19 51°10.436 2°40.174 13 160 16.2 101930 78
2002-09-25 07:58:25 51°10.429 2°40.134 12.5 163 16.2 101930 78
2002-09-25 07:58:30 51°10.424 2°40.102 11.2 171 16.3 101930 78
2002-09-25 07:58:35 51°10.417 2°40.07 13.1 166 16.3 101930 78
2002-09-25 07:58:39 51°10.413 2°40.044 13.2 163 16.3 101940 78
2002-09-25 07:58:45 51°10.406 2°40.005 12.2 165 16.3 101940 78
2002-09-25 07:58:50 51°10.401 2°39.972 12.3 161 16.2 101930 78
2002-09-25 07:58:55 51°10.394 2°39.94 13.3 162 16.2 101930 78
2002-09-25 07:58:59 51°10.391 2°39.913 11.3 162 16.2 101930 77
2002-09-25 07:59:05 51°10.383 2°39.875 13.7 156 16.2 101930 77
2002-09-25 07:59:10 51°10.38 2°39.842 10.4 164 16.2 101930 77
2002-09-25 07:59:15 51°10.372 2°39.809 14.1 165 16.2 101930 77
2002-09-25 07:59:19 51°10.369 2°39.783 12.7 159 16.2 101940 77
2002-09-25 07:59:25 51°10.362 2°39.744 11.6 165 16.2 101940 77
2002-09-25 07:59:30 51°10.357 2°39.711 13.1 157 16.1 101930 77
2002-09-25 07:59:34 51°10.352 2°39.685 11.1 153 16.1 101930 77
2002-09-25 07:59:39 51°10.348 2°39.652 9.1 168 16.1 101930 77
2002-09-25 07:59:45 51°10.34 2°39.613 13.7 164 16.1 101930 77
2002-09-25 07:59:50 51°10.335 2°39.58 11.9 161 16.1 101920 76
2002-09-25 07:59:55 51°10.329 2°39.548 9.5 165 16.1 101920 76
2002-09-25 07:59:59 51°10.325 2°39.521 10.6 171 16.1 101930 77
2002-09-25 08:00:05 51°10.319 2°39.482 9 166 16.1 101930 77
2002-09-25 08:00:10 51°10.312 2°39.45 10.7 161 16.1 101940 77
2002-09-25 08:00:14 51°10.309 2°39.424 9.8 162 16.1 101940 77
2002-09-25 08:00:19 51°10.301 2°39.392 11.5 168 16.1 101930 77
2002-09-25 08:00:25 51°10.297 2°39.352 10.2 163 16.1 101930 77
2002-09-25 08:00:30 51°10.288 2°39.321 12.3 161 16.1 101930 77
2002-09-25 08:00:35 51°10.286 2°39.287 10 163 16.1 101930 77
2002-09-25 08:00:39 51°10.279 2°39.263 12 161 16.1 101940 77
2002-09-25 08:00:45 51°10.274 2°39.224 10.8 161 16.1 101940 77
2002-09-25 08:00:50 51°10.268 2°39.191 11 163 16.2 101930 77
2002-09-25 08:00:55 51°10.265 2°39.158 8.6 175 16.2 101930 77
2002-09-25 08:00:59 51°10.258 2°39.133 12.2 176 16.2 101940 77
2002-09-25 08:01:05 51°10.254 2°39.093 12.1 165 16.2 101940 77
2002-09-25 08:01:10 51°10.247 2°39.061 13.3 171 16.2 101940 77
2002-09-25 08:01:15 51°10.244 2°39.028 11.1 160 16.2 101940 77
2002-09-25 08:01:19 51°10.239 2°39.002 9.8 170 16.2 101940 77
2002-09-25 08:01:25 51°10.234 2°38.963 11.8 166 16.2 101940 77
2002-09-25 08:01:29 51°10.229 2°38.937 13.4 163 16.2 101930 77
2002-09-25 08:01:35 51°10.224 2°38.898 10.5 171 16.2 101930 77
2002-09-25 08:01:39 51°10.219 2°38.872 13 172 16.2 101920 77
2002-09-25 08:01:45 51°10.213 2°38.832 10.9 164 16.2 101920 77
2002-09-25 08:01:50 51°10.208 2°38.8 9 176 16.2 101930 78
2002-09-25 08:01:55 51°10.203 2°38.767 11.9 164 16.2 101930 78
2002-09-25 08:01:59 51°10.199 2°38.741 10.5 171 16.2 101930 78
2002-09-25 08:02:05 51°10.194 2°38.7 12.9 175 16.2 101930 78
2002-09-25 08:02:09 51°10.19 2°38.674 13.3 164 16.2 101940 78
2002-09-25 08:02:15 51°10.184 2°38.634 10.9 173 16.2 101940 78
2002-09-25 08:02:19 51°10.18 2°38.609 12 161 16.3 101940 78
2002-09-25 08:02:25 51°10.174 2°38.57 13.5 171 16.3 101940 78
2002-09-25 08:02:30 51°10.17 2°38.536 12.3 166 16.2 101930 78
2002-09-25 08:02:35 51°10.164 2°38.504 13.5 170 16.2 101930 78
2002-09-25 08:02:39 51°10.16 2°38.477 12.4 167 16.2 101930 78
2002-09-25 08:02:45 51°10.154 2°38.437 12.3 162 16.2 101930 78
2002-09-25 08:02:50 51°10.15 2°38.404 12.9 162 16.2 101930 78
2002-09-25 08:02:55 51°10.144 2°38.372 12.1 170 16.2 101930 78
2002-09-25 08:02:59 51°10.14 2°38.345 12.8 164 16.2 101930 78
2002-09-25 08:03:05 51°10.134 2°38.305 12.3 164 16.2 101930 78
2002-09-25 08:03:10 51°10.129 2°38.272 13.2 161 16.2 101930 78
2002-09-25 08:03:15 51°10.125 2°38.239 10.7 166 16.2 101930 78
2002-09-25 08:03:19 51°10.121 2°38.213 11 178 16.2 101930 78
2002-09-25 08:03:25 51°10.115 2°38.173 10.9 166 16.2 101930 78
2002-09-25 08:03:30 51°10.11 2°38.14 12.5 173 16.2 101940 78
2002-09-25 08:03:35 51°10.104 2°38.107 13.2 169 16.2 101940 78
2002-09-25 08:03:39 51°10.101 2°38.081 13.4 169 16.2 101930 78
2002-09-25 08:03:45 51°10.095 2°38.041 13.1 161 16.2 101930 78
2002-09-25 08:03:50 51°10.091 2°38.008 11.7 178 16.2 101930 78
2002-09-25 08:03:55 51°10.085 2°37.975 13.5 173 16.2 101930 78
2002-09-25 08:04:00 51°10.081 2°37.942 14.4 167 16.2 101930 78
2002-09-25 08:04:02 51°10.08 2°37.929 11.9 175 16.2 101930 78
2002-09-25 08:04:10 51°10.073 2°37.876 13.3 172 16.2 101940 78
2002-09-25 08:04:15 51°10.067 2°37.843 12.8 172 16.2 101940 78
2002-09-25 08:04:19 51°10.066 2°37.817 10 177 16.2 101930 78
2002-09-25 08:04:25 51°10.059 2°37.777 14.4 176 16.2 101930 78
2002-09-25 08:04:29 51°10.057 2°37.75 14.5 168 16.2 101930 78
2002-09-25 08:04:35 51°10.051 2°37.711 13.2 166 16.2 101930 78
2002-09-25 08:04:40 51°10.048 2°37.677 13.8 170 16.2 101920 78
2002-09-25 08:04:45 51°10.044 2°37.644 12.2 170 16.2 101920 78
2002-09-25 08:04:50 51°10.04 2°37.612 14.2 163 16.2 101930 78
2002-09-25 08:04:55 51°10.036 2°37.579 11.3 165 16.2 101930 78
2002-09-25 08:04:59 51°10.033 2°37.553 12.7 168 16.2 101930 78
2002-09-25 08:05:05 51°10.027 2°37.513 14.8 168 16.2 101930 78
2002-09-25 08:05:10 51°10.024 2°37.48 10.4 173 16.2 101930 78
2002-09-25 08:05:15 51°10.019 2°37.447 15.2 164 16.2 101930 78
2002-09-25 08:05:19 51°10.017 2°37.421 11.7 158 16.1 101930 78
2002-09-25 08:05:25 51°10.011 2°37.381 14.4 169 16.1 101930 78
2002-09-25 08:05:30 51°10.008 2°37.347 14.3 173 16.1 101940 78
2002-09-25 08:05:35 51°10.004 2°37.314 12.6 163 16.1 101940 78
2002-09-25 08:05:39 51°10.001 2°37.287 11.9 170 16.1 101940 78
2002-09-25 08:05:45 51°9.996 2°37.248 13.8 169 16.1 101940 78
2002-09-25 08:05:50 51°9.992 2°37.213 12.5 167 16.1 101930 78
2002-09-25 08:05:55 51°9.988 2°37.18 13.6 160 16.1 101930 78
2002-09-25 08:06:00 51°9.985 2°37.147 10.8 176 16.1 101930 78
2002-09-25 08:06:05 51°9.982 2°37.115 13 177 16.1 101930 78
2002-09-25 08:06:10 51°9.978 2°37.081 12.3 169 16.1 101930 78
2002-09-25 08:06:14 51°9.976 2°37.054 12.5 173 16.1 101930 78
2002-09-25 08:06:19 51°9.972 2°37.021 13.3 166 16.1 101930 78
2002-09-25 08:06:25 51°9.968 2°36.982 12 176 16.1 101930 78
2002-09-25 08:06:30 51°9.964 2°36.949 12.8 171 16.1 101930 78
2002-09-25 08:06:35 51°9.959 2°36.915 13.8 164 16.1 101930 78
2002-09-25 08:06:39 51°9.959 2°36.888 12 174 16.1 101940 78
2002-09-25 08:06:45 51°9.954 2°36.849 15.6 165 16.1 101940 78
2002-09-25 08:06:50 51°9.952 2°36.815 10.1 180 16.1 101940 78
2002-09-25 08:06:55 51°9.949 2°36.782 15 167 16.1 101940 78
2002-09-25 08:06:59 51°9.947 2°36.755 13.7 169 16.1 101940 78
2002-09-25 08:07:05 51°9.944 2°36.716 12.1 170 16.1 101940 78
2002-09-25 08:07:10 51°9.94 2°36.683 11.9 161 16.1 101940 78
2002-09-25 08:07:15 51°9.939 2°36.649 15.1 167 16.1 101940 78
2002-09-25 08:07:19 51°9.937 2°36.622 12.9 177 16.1 101920 78
2002-09-25 08:07:25 51°9.936 2°36.583 12.8 169 16.1 101920 78
2002-09-25 08:07:30 51°9.934 2°36.55 13.9 177 16.1 101920 78
2002-09-25 08:07:35 51°9.933 2°36.517 14.1 171 16.1 101920 78
2002-09-25 08:07:39 51°9.934 2°36.49 13.3 172 16.1 101930 78
2002-09-25 08:07:45 51°9.933 2°36.45 13.6 174 16.1 101930 78
2002-09-25 08:07:50 51°9.934 2°36.417 14.4 179 16.1 101930 78
2002-09-25 08:07:55 51°9.934 2°36.384 12.7 178 16.1 101930 78
2002-09-25 08:07:59 51°9.935 2°36.357 10.4 181 16.1 101920 78
2002-09-25 08:08:05 51°9.936 2°36.318 10.6 185 16.1 101920 78
2002-09-25 08:08:10 51°9.938 2°36.284 15 179 16.1 101920 78
2002-09-25 08:08:15 51°9.939 2°36.251 12.5 179 16.1 101920 78
2002-09-25 08:08:19 51°9.941 2°36.225 12.9 185 16.2 101930 78
2002-09-25 08:08:25 51°9.943 2°36.185 11.5 184 16.2 101930 78
2002-09-25 08:08:30 51°9.945 2°36.152 11.7 185 16.2 101930 78
2002-09-25 08:08:34 51°9.948 2°36.126 12.7 189 16.2 101930 78
2002-09-25 08:08:39 51°9.951 2°36.093 14 189 16.2 101930 78
2002-09-25 08:08:45 51°9.957 2°36.055 14.4 197 16.2 101930 78
2002-09-25 08:08:50 51°9.961 2°36.023 16.3 194 16.2 101930 78
2002-09-25 08:08:54 51°9.967 2°35.999 15.2 192 16.2 101930 78
2002-09-25 08:08:59 51°9.973 2°35.968 13.6 194 16.2 101910 78
2002-09-25 08:09:05 51°9.982 2°35.932 15.7 199 16.2 101910 78
2002-09-25 08:09:10 51°9.991 2°35.903 15.5 198 16.2 101910 78
2002-09-25 08:09:15 51°9.999 2°35.873 16.4 198 16.2 101910 78
2002-09-25 08:09:19 51°10.007 2°35.85 14.9 199 16.2 101910 78
2002-09-25 08:09:25 51°10.017 2°35.816 15.6 203 16.2 101910 78